Location: Little Eden Observatory
(34.6167°N, 93.7833°W)
Time: 17:47:24
(UTC-05:00)

Tiangong 2 - Visible Passes

Search period start: 18 June 2018 00:00
Search period end: 28 June 2018 00:00
Orbit: 292 x 297 km, 42.8° (Epoch: 18 June)

Date Brightness Start Highest point End Pass type
(mag) Time Alt. Az. Time Alt. Az. Time Alt. Az.
24 Jun 2.5 05:05:16 13° S 05:06:49 21° SE 05:08:50 10° E visible
25 Jun 0.9 05:10:53 17° SW 05:12:40 50° SSE 05:15:10 10° ENE visible
26 Jun 0.7 05:16:23 13° WSW 05:18:31 63° NNW 05:21:03 10° ENE visible
27 Jun 3.5 03:51:26 13° E 03:51:26 13° E 03:51:56 10° E visible
27 Jun 2.0 05:22:03 10° W 05:24:24 31° NNW 05:26:44 10° NE visible
